sat.trackr.live / text

‹ back to catalog

STARLINK-4178

NORAD 53277 · 2022-086AM

PAYLOAD ACTIVE UNKNOWN

§ Identity

Operator
Country
US
Launch date
2022-07-24
Launch site
AFETR
Launch vehicle
Mass (kg)
RCS (m²)

Purposes: comms

External: N2YO · Heavens-Above · Gunter

§ Orbital elements

Epoch: 2026-09-19T20:16:22.118016Z

Period
94.01 min
Inclination
53.1611°
Eccentricity
0.0001336
Mean motion
15.31694551 rev/d
Perigee alt
469.8 km
Apogee alt
471.7 km
Semi-major
6,848.9 km
B*
-2.3795e-5
RAAN
19.4103°
Arg perigee
91.6795°
Mean anomaly
268.4359°
Rev number
23,068

§ Raw data

STARLINK-41781 53277U 22086AM  26262.84470044 -.00001103  00000+0 -23795-4 0  99972 53277  53.1611  19.4103 0001336  91.6795 268.4359 15.31694551230687

JSON: /api/v1/satellites/53277 · /tle

For live sub-satellite position, see the globe view (requires WebGL).

§ Visibility from observer

Set your observer location to see the next 7 days of passes ≥ 10°. The values pass through the URL so the page stays shareable.

No JS? Fill the form by hand. The geolocation button needs JavaScript.